Wetbulb
59.28 59.32 59.39 59.11 59.24 60.65 61.29 61.47 61.56 62.87 62.79 63.88 64.25 63.19 62.14 63.23 64.75 64.16 64.11 64.32 65.44 67.02 67.43 67.98 66.91 66.27 65.28 64.22 63.72 63.56 63.47 63.80 63.81 63.43 62.99 62.84 63.32 63.62 64.38 66.26 66.64 66.51 66.39
58.30 58.19 57.67 57.67 57.63 57.62 56.82 58.46 59.48 59.97 59.40 61.15 59.83 60.68 60.93 62.59 62.20 61.31 61.91 61.87 62.11 63.43 64.34 64.77 64.70 64.68 64.02 62.99 61.82 61.32 61.38 61.47 61.34 61.23 61.10 60.85 61.09 61.30 61.67 62.39 63.39 65.27 66.26
57.47 57.03 56.49 55.89 54.92 52.97 53.21 53.16 52.61 55.12 54.07 56.31 55.46 55.29 57.76 60.74 59.50 59.46 59.53 59.43 59.43 59.87 60.31 60.39 60.50 60.43 60.34 60.32 59.61 58.76 58.76 58.24 58.82 58.78 58.61 58.82 58.91 59.32 59.90 60.57 61.52 62.31 63.34
53.94 55.14 55.05 51.42 51.07 50.69 50.78 51.30 50.80 50.29 49.25 49.34 48.37 49.99 54.92 58.65 57.53 57.07 57.54 57.23 56.81 56.36 56.69 56.73 56.75 56.96 57.20 57.65 57.91 57.44 57.00 56.60 57.00 56.93 56.74 56.91 57.04 56.99 57.52 58.32 59.16 60.06 61.18
53.28 52.12 50.93 50.07 50.24 49.68 49.67 49.98 48.73 49.07 47.28 47.41 47.74 50.60 55.55 54.80 54.65 56.20 55.54 55.08 54.47 53.37 52.81 53.75 53.94 53.84 54.34 54.64 54.89 55.61 55.66 55.32 55.32 55.15 55.05 55.09 55.41 55.76 55.95 56.38 57.03 57.99 59.22
51.27 50.52 49.63 48.96 49.31 48.62 48.15 48.01 47.40 47.08 46.85 45.96 49.18 51.85 52.32 52.27 52.08 52.04 54.39 54.00 51.98 49.54 47.68 47.17 46.77 47.82 51.09 51.66 51.69 52.78 53.51 54.06 54.13 53.93 53.75 53.68 53.64 53.82 54.46 55.37 56.08 56.97 57.46
49.67 48.85 47.58 48.10 47.90 46.93 46.57 46.82 46.38 45.50 45.01 45.72 48.68 50.70 50.69 50.26 48.90 48.81 50.13 50.89 47.59 45.97 44.21 43.60 42.76 42.12 42.99 47.84 49.13 49.78 51.27 52.15 52.59 52.68 52.32 52.10 52.56 52.63 53.41 53.63 54.37 55.16 56.59
47.48 47.83 46.56 46.70 46.83 46.05 45.65 45.54 45.82 44.75 44.38 44.44 44.69 48.60 48.20 47.78 46.61 47.76 46.14 44.36 41.93 41.12 40.58 41.01 40.35 39.45 39.29 40.91 43.75 46.56 47.20 49.07 50.36 50.57 50.42 50.51 50.69 51.08 51.33 52.16 53.12 54.24 55.60
47.00 46.62 46.39 46.24 46.16 46.00 45.05 44.26 44.76 44.58 42.75 43.28 44.23 46.92 46.17 44.14 43.19 45.47 43.06 41.99 40.19 38.29 36.78 37.18 38.32 38.69 39.16 38.92 40.23 41.49 43.59 44.88 47.16 48.28 48.78 48.78 49.54 50.18 50.88 50.87 51.45 52.04 52.91
46.48 46.76 46.24 46.46 46.16 45.47 44.66 43.90 44.61 44.20 43.36 42.34 42.47 43.15 42.12 44.56 39.85 37.74 41.59 39.92 39.23 37.42 35.57 36.01 35.76 36.93 37.14 36.68 40.47 41.65 42.00 42.68 44.05 45.82 46.59 47.30 47.65 48.07 48.31 48.81 49.28 49.84 50.82
45.63 46.31 45.93 45.38 44.59 43.93 43.03 43.36 42.93 43.32 43.04 42.69 40.62 40.56 39.15 39.18 40.44 37.48 36.81 35.10 36.09 35.81 35.45 34.62 34.08 34.33 35.55 35.99 35.90 38.99 40.64 40.44 40.69 42.22 43.50 44.54 45.52 45.96 46.37 46.56 47.15 47.86 48.58
43.88 44.76 44.80 43.56 43.33 42.78 41.97 41.16 40.88 41.36 40.89 40.33 40.07 40.07 39.83 39.61 38.07 37.39 35.03 34.36 33.25 34.45 34.67 34.81 33.74 33.05 33.74 35.05 38.95 39.56 39.11 38.74 38.63 39.40 40.70 41.55 42.08 42.86 43.31 43.74 44.36 45.70 46.25
42.45 42.95 42.59 42.33 41.95 41.73 41.03 40.36 39.42 39.18 39.07 38.49 37.82 36.99 37.28 36.97 37.88 37.83 38.03 35.29 34.75 34.13 33.88 34.05 33.70 32.51 34.30 33.29 35.21 37.62 38.10 37.28 36.86 37.55 38.25 39.22 39.71 40.37 40.92 41.19 41.49 42.33 43.48
42.54 43.17 42.63 42.53 42.20 41.13 40.11 39.75 38.61 37.80 38.03 37.46 36.59 36.74 36.50 36.41 37.11 36.61 36.50 34.59 32.43 36.34 35.30 30.20 31.83 32.30 32.42 33.24 35.97 37.13 34.67 36.05 35.94 35.86 36.25 37.03 37.37 37.56 37.52 38.07 38.82 39.90 41.18
43.57 42.93 42.29 41.01 40.62 40.04 39.53 38.35 37.35 37.09 37.37 36.86 36.02 35.92 35.63 35.17 35.66 35.07 34.22 33.73 33.40 30.67 28.72 29.39 27.05 28.45 31.43 32.69 35.53 33.42 33.92 36.43 35.29 34.74 34.81 35.34 35.82 36.08 35.96 36.61 36.94 37.44 38.69
43.91 42.68 42.46 41.43 40.35 38.78 38.56 37.73 36.60 36.58 36.60 36.09 35.81 35.51 35.03 34.65 34.57 34.54 33.56 33.19 33.01 31.75 27.67 29.04 27.32 25.34 27.17 34.35 35.10 32.11 33.06 35.59 35.11 34.00 33.74 34.11 34.33 34.59 34.94 35.44 35.84 36.39 37.21
44.71 43.54 42.41 41.03 39.80 39.05 37.47 36.45 35.80 35.72 35.44 35.21 35.58 35.27 34.70 35.05 34.10 34.12 34.01 33.21 32.28 31.53 27.83 26.79 26.47 24.03 23.97 29.00 30.29 30.71 31.05 29.96 33.05 34.46 33.73 33.49 33.34 33.38 33.92 34.10 34.18 34.98 35.95
43.90 43.15 42.11 40.37 39.26 38.34 37.74 35.78 35.51 35.41 34.31 34.06 33.59 34.25 34.54 34.73 33.30 33.94 33.52 32.82 32.27 31.20 28.10 24.39 22.79 22.69 22.85 24.24 29.60 27.55 30.17 29.43 31.50 34.33 33.90 33.32 32.98 33.01 33.03 33.44 33.30 34.05 34.57
41.80 41.35 40.96 39.34 38.31 37.46 36.81 35.29 34.23 33.05 31.40 30.40 30.45 31.22 31.19 31.86 30.74 30.49 30.26 29.76 29.58 31.25 28.28 25.23 21.16 22.50 22.31 23.16 27.55 24.07 23.88 23.23 28.34 33.52 32.95 32.34 32.15 32.63 32.34 32.91 32.74 33.17 33.93
39.48 38.49 38.88 37.77 37.22 36.57 35.57 33.60 32.37 30.34 29.95 28.79 29.29 29.07 28.82 29.49 28.47 28.10 28.45 27.78 27.99 26.45 25.51 23.20 21.32 20.38 21.07 21.49 22.83 23.89 20.27 20.79 21.20 26.38 30.47 30.68 30.59 30.82 31.65 31.64 31.76 32.51 33.28
38.36 37.59 36.67 36.28 36.00 34.97 34.20 32.16 31.47 29.88 28.54 27.09 28.20 28.82 28.58 29.04 28.58 27.66 26.54 25.92 26.10 24.43 23.78 22.40 20.04 19.06 18.81 18.90 19.05 20.39 22.55 19.94 19.19 20.75 25.31 25.87 26.45 26.04 27.00 28.78 30.16 31.42 32.64
35.11 34.83 35.11 35.05 34.36 34.76 33.92 32.84 31.14 29.54 28.54 27.48 27.25 28.02 29.17 29.51 29.30 29.03 28.44 27.80 26.32 24.27 22.45 21.29 18.94 17.97 16.99 17.96 18.92 19.74 20.68 19.72 16.83 19.65 22.09 22.86 25.30 22.96 24.18 26.19 29.56 29.68 30.58
34.19 33.11 32.58 32.42 31.71 33.02 33.72 32.96 31.39 28.65 27.42 27.00 25.96 25.23 25.18 25.94 25.64 25.28 26.27 26.14 25.45 24.90 23.40 20.56 17.70 17.17 17.16 18.47 18.95 19.89 18.26 16.88 15.64 18.05 19.52 19.67 21.43 20.11 22.27 26.73 27.88 28.77 29.07
31.75 30.76 30.34 30.73 31.45 32.82 34.74 33.11 30.36 27.86 26.76 26.32 25.49 25.29 23.13 21.19 21.61 21.66 20.78 19.76 20.70 21.33 21.28 20.96 20.06 19.73 19.85 19.89 19.85 20.56 18.15 16.90 16.98 15.98 17.22 17.12 16.67 16.01 17.78 21.08 25.99 26.54 27.10
30.07 29.35 29.77 30.53 31.11 31.51 34.27 31.46 28.57 26.59 25.59 25.26 25.37 25.39 23.55 21.92 23.40 23.70 20.20 19.71 19.39 18.77 25.05 25.45 24.83 23.99 24.94 23.34 21.20 20.26 18.11 17.46 9.36 7.71 5.58 7.44 8.97 10.60 9.42 10.23 20.43 23.73 24.77
26.81 28.87 29.03 29.96 31.67 30.71 32.70 31.01 27.59 25.25 23.11 22.97 24.33 25.37 24.94 23.00 23.96 23.14 19.62 19.01 17.04 15.06 16.59 15.19 13.84 13.19 13.45 17.99 19.79 12.90 15.52 15.17 1.86 1.00 5.86 7.82 7.88 10.79 8.51 11.10 16.75 19.02 18.73
MSLP
1017.18 1017.43 1017.64 1017.85 1017.83 1017.79 1017.74 1017.63 1017.66 1017.67 1017.76 1017.78 1017.88 1017.94 1018.35 1018.49 1018.73 1018.97 1019.29 1019.08 1019.19 1019.51 1019.70 1019.83 1020.22 1020.25 1020.58 1020.83 1021.13 1021.16 1021.16 1021.12 1021.03 1021.00 1020.96 1020.97 1020.88 1020.77 1020.65 1020.42 1020.31 1020.29 1020.40
1017.22 1017.40 1017.63 1017.96 1018.07 1018.02 1018.19 1018.16 1018.03 1017.84 1018.05 1017.99 1018.20 1018.38 1018.72 1019.04 1019.20 1019.67 1019.91 1020.27 1020.14 1020.38 1020.61 1020.54 1020.79 1020.88 1021.20 1021.46 1021.66 1021.69 1021.71 1021.63 1021.59 1021.52 1021.43 1021.42 1021.33 1021.24 1021.04 1020.82 1020.59 1020.37 1020.25
1017.06 1017.20 1017.55 1017.72 1018.05 1018.16 1018.18 1018.36 1018.46 1018.48 1018.45 1018.55 1018.58 1018.77 1018.81 1019.14 1019.79 1020.02 1020.40 1020.98 1021.17 1021.37 1021.46 1021.55 1021.69 1021.85 1021.95 1022.04 1022.21 1022.22 1022.26 1022.24 1022.12 1021.97 1021.86 1021.77 1021.72 1021.59 1021.35 1021.11 1020.83 1020.63 1020.39
1017.31 1017.44 1017.75 1018.16 1018.38 1018.51 1018.62 1018.66 1018.90 1019.06 1018.94 1019.09 1019.34 1019.30 1019.62 1019.62 1020.20 1020.58 1020.74 1021.28 1021.66 1022.01 1022.30 1022.53 1022.51 1022.62 1022.71 1022.67 1022.63 1022.66 1022.66 1022.59 1022.47 1022.36 1022.25 1022.12 1022.01 1021.88 1021.65 1021.36 1021.11 1020.87 1020.56
1017.46 1017.68 1017.91 1018.17 1018.38 1018.86 1018.93 1019.13 1019.52 1019.54 1019.68 1019.70 1019.97 1019.87 1019.83 1020.35 1020.64 1021.03 1021.39 1021.80 1022.04 1022.43 1022.79 1023.08 1023.11 1023.28 1023.40 1023.41 1023.37 1023.20 1023.03 1022.86 1022.76 1022.67 1022.58 1022.39 1022.21 1021.99 1021.77 1021.57 1021.34 1021.03 1020.72
1017.73 1017.96 1017.99 1018.12 1018.38 1018.72 1018.98 1019.32 1019.74 1020.20 1020.38 1020.21 1020.46 1020.85 1020.97 1021.15 1021.47 1021.88 1022.03 1022.37 1022.93 1023.23 1023.62 1023.77 1023.99 1024.19 1024.12 1024.16 1024.16 1023.94 1023.66 1023.32 1023.10 1022.91 1022.84 1022.68 1022.51 1022.26 1021.92 1021.54 1021.26 1021.01 1020.77
1017.68 1017.97 1018.23 1018.29 1018.51 1018.76 1018.98 1019.13 1019.63 1020.19 1020.66 1020.84 1020.90 1021.61 1022.03 1022.33 1022.61 1022.94 1023.06 1023.22 1023.76 1024.18 1024.31 1024.54 1024.72 1024.89 1024.99 1024.84 1024.66 1024.53 1024.22 1023.83 1023.53 1023.47 1023.27 1023.03 1022.74 1022.52 1022.19 1021.81 1021.50 1021.07 1020.64
1018.22 1018.41 1018.49 1018.47 1018.45 1018.88 1019.08 1019.33 1019.53 1020.06 1020.40 1020.55 1021.13 1021.51 1022.39 1023.16 1023.57 1024.04 1024.16 1024.42 1024.84 1025.08 1025.15 1025.33 1025.54 1025.71 1025.73 1025.68 1025.49 1025.18 1024.98 1024.46 1023.95 1023.71 1023.42 1023.31 1023.10 1022.72 1022.48 1022.12 1021.71 1021.20 1020.85
1018.63 1018.68 1018.62 1018.86 1018.96 1018.90 1019.21 1019.34 1019.46 1019.91 1020.38 1020.66 1020.42 1020.78 1021.89 1022.35 1023.39 1024.43 1024.92 1025.23 1025.49 1025.81 1026.22 1026.20 1026.30 1026.29 1026.24 1026.09 1025.93 1025.75 1025.55 1025.09 1024.61 1024.27 1023.95 1023.72 1023.42 1022.99 1022.68 1022.36 1022.11 1021.71 1021.29
1018.76 1018.82 1018.83 1018.79 1018.85 1019.26 1019.41 1019.57 1019.77 1019.60 1019.96 1020.58 1020.75 1020.62 1020.52 1020.85 1022.66 1024.63 1025.44 1025.85 1026.06 1026.17 1026.46 1026.50 1026.67 1026.74 1026.70 1026.51 1026.19 1026.11 1025.83 1025.56 1025.30 1024.94 1024.69 1024.38 1023.96 1023.71 1023.14 1023.01 1022.65 1022.27 1021.84
1018.99 1018.94 1018.91 1019.11 1019.12 1019.41 1019.74 1019.78 1019.93 1020.09 1019.84 1020.09 1020.82 1021.02 1021.30 1021.40 1021.68 1023.05 1025.09 1026.31 1026.71 1026.90 1026.84 1026.87 1026.77 1026.80 1026.96 1026.80 1026.58 1026.52 1026.21 1025.93 1025.96 1025.89 1025.60 1025.32 1024.72 1024.35 1024.07 1023.68 1023.20 1022.59 1022.08
1019.24 1019.11 1019.16 1019.17 1019.31 1019.25 1019.82 1020.14 1020.16 1020.17 1020.35 1020.37 1020.53 1020.83 1021.17 1021.57 1022.01 1022.58 1024.19 1025.81 1026.53 1027.33 1027.40 1027.38 1027.24 1027.14 1027.14 1027.18 1026.87 1026.86 1026.68 1026.41 1026.96 1026.96 1026.53 1026.08 1025.56 1025.01 1024.52 1024.33 1024.03 1023.33 1022.66
1018.96 1019.16 1019.39 1019.43 1019.66 1019.52 1019.42 1019.92 1020.37 1020.55 1020.68 1020.76 1021.00 1021.39 1021.42 1021.72 1021.87 1022.40 1023.04 1024.82 1025.78 1026.99 1027.44 1027.62 1027.81 1027.59 1027.53 1027.64 1027.41 1027.26 1027.35 1027.36 1027.77 1027.43 1026.92 1026.30 1025.73 1025.56 1025.26 1025.09 1024.70 1023.88 1023.28
1018.38 1018.72 1019.24 1019.38 1019.62 1019.81 1020.02 1019.98 1020.30 1020.64 1020.92 1021.21 1021.38 1021.48 1021.67 1021.92 1022.11 1022.22 1022.62 1023.67 1025.49 1026.12 1026.82 1027.43 1028.20 1027.87 1027.89 1027.84 1027.58 1028.04 1027.97 1028.02 1028.10 1028.04 1027.74 1026.95 1026.07 1026.30 1026.37 1026.07 1025.38 1024.46 1023.85
1018.01 1018.46 1018.78 1019.14 1019.39 1019.77 1020.11 1020.57 1020.60 1020.71 1020.91 1021.36 1021.78 1022.03 1022.06 1022.22 1022.44 1022.78 1022.93 1023.35 1024.03 1025.75 1026.73 1027.57 1028.04 1028.47 1028.02 1027.95 1027.94 1028.46 1028.46 1028.58 1028.56 1028.56 1028.38 1027.49 1026.91 1026.75 1026.83 1026.25 1025.76 1025.16 1024.53
1017.86 1018.49 1018.83 1018.99 1019.24 1019.54 1020.01 1020.54 1020.92 1020.86 1021.02 1021.34 1021.76 1022.18 1022.55 1022.71 1022.83 1023.03 1023.48 1023.60 1024.08 1024.89 1026.20 1026.98 1027.91 1028.67 1028.46 1028.00 1028.10 1028.44 1028.77 1028.76 1028.84 1029.18 1028.83 1027.82 1027.42 1027.40 1027.04 1026.69 1026.02 1025.59 1025.17
1017.86 1018.28 1018.60 1019.00 1019.21 1019.65 1019.84 1020.38 1020.98 1021.02 1021.20 1021.54 1021.89 1022.20 1022.89 1022.99 1023.42 1023.40 1023.83 1023.93 1024.33 1025.21 1025.96 1027.56 1028.01 1028.83 1028.80 1028.47 1028.56 1028.82 1028.77 1029.28 1029.60 1029.05 1028.94 1028.20 1027.72 1027.73 1027.34 1026.88 1026.70 1026.26 1025.82
1017.26 1017.45 1018.18 1018.67 1019.03 1019.58 1019.86 1020.39 1021.09 1021.26 1021.52 1021.89 1022.31 1022.41 1022.90 1022.84 1023.52 1024.02 1024.19 1024.18 1024.28 1024.88 1025.89 1027.18 1028.21 1028.78 1028.93 1029.10 1028.72 1029.18 1029.11 1029.44 1030.03 1029.30 1029.07 1028.36 1028.12 1027.94 1027.81 1027.24 1027.08 1026.70 1026.30
1017.39 1017.76 1017.99 1018.40 1019.09 1019.72 1020.06 1020.76 1021.45 1021.92 1022.29 1022.61 1022.95 1023.30 1023.40 1022.96 1023.75 1024.45 1024.58 1024.58 1024.76 1025.20 1026.01 1026.81 1028.07 1028.63 1029.27 1029.40 1029.16 1029.67 1030.17 1029.86 1030.44 1029.62 1029.46 1028.86 1028.60 1028.37 1028.50 1027.78 1027.59 1027.45 1026.69
1017.42 1017.91 1018.34 1018.72 1019.17 1019.74 1020.32 1020.83 1021.61 1022.09 1022.53 1023.22 1023.76 1024.04 1024.09 1023.72 1024.23 1024.57 1024.62 1024.83 1025.14 1025.95 1026.66 1027.14 1027.86 1028.83 1029.29 1029.69 1029.69 1029.91 1030.32 1031.05 1031.25 1030.43 1029.91 1029.73 1029.36 1029.33 1029.08 1028.45 1028.10 1028.22 1027.65
1017.44 1017.82 1018.46 1018.95 1019.37 1019.96 1020.60 1021.41 1022.07 1022.61 1022.81 1023.13 1023.92 1024.52 1024.45 1024.38 1024.65 1024.85 1024.89 1025.17 1025.45 1026.05 1026.92 1027.33 1027.94 1028.85 1029.45 1029.68 1029.80 1030.33 1030.51 1031.13 1031.76 1031.32 1030.67 1030.51 1030.31 1029.96 1029.73 1029.35 1028.81 1028.52 1028.77
1017.96 1018.12 1018.79 1019.32 1019.79 1020.56 1021.22 1021.84 1022.36 1023.04 1023.58 1023.85 1024.03 1024.74 1024.59 1024.81 1024.86 1025.09 1025.19 1025.43 1025.74 1026.10 1027.06 1027.27 1028.23 1028.87 1029.42 1029.51 1029.90 1030.41 1030.42 1031.44 1031.80 1031.61 1031.32 1031.09 1030.84 1030.45 1030.30 1029.95 1029.50 1029.19 1029.33
1018.91 1019.20 1019.51 1019.89 1020.47 1020.99 1021.65 1022.14 1022.73 1023.43 1023.95 1024.34 1025.02 1025.28 1025.34 1025.67 1026.05 1025.86 1026.02 1026.19 1026.30 1026.88 1027.04 1027.39 1028.31 1029.20 1029.30 1029.52 1029.91 1030.06 1030.51 1031.38 1031.81 1031.86 1031.59 1031.84 1031.77 1031.30 1031.01 1030.79 1030.35 1029.77 1029.87
1019.48 1019.95 1020.22 1020.72 1021.00 1021.37 1021.79 1022.44 1023.01 1023.66 1024.30 1024.79 1025.50 1026.06 1026.04 1026.30 1026.43 1026.56 1026.94 1027.14 1027.47 1027.82 1028.02 1028.26 1028.82 1029.05 1028.90 1029.54 1029.77 1029.91 1030.77 1031.58 1032.10 1032.22 1032.06 1032.46 1032.68 1032.24 1031.80 1031.65 1031.20 1030.80 1030.41
1019.97 1020.46 1020.72 1021.06 1021.50 1021.84 1021.99 1022.62 1023.06 1023.95 1024.53 1025.31 1025.60 1026.10 1026.36 1026.67 1026.58 1026.79 1027.30 1027.77 1028.11 1028.46 1028.52 1028.74 1029.00 1028.92 1028.51 1029.09 1029.73 1030.27 1031.08 1031.52 1032.58 1032.96 1033.23 1033.19 1033.28 1033.23 1033.13 1033.05 1031.87 1031.68 1031.34
1020.48 1020.78 1021.21 1021.48 1021.73 1021.97 1022.23 1022.73 1023.25 1024.08 1024.96 1025.41 1025.61 1026.33 1026.50 1027.05 1026.95 1027.31 1027.77 1028.05 1028.92 1029.27 1029.56 1030.38 1030.46 1030.12 1029.95 1029.87 1030.28 1030.93 1031.18 1031.77 1032.75 1033.34 1033.31 1033.62 1033.50 1033.43 1033.65 1033.73 1032.88 1032.11 1032.26
Wind_Speed
3 2 2 0 1 2 1 2 2 3 3 4 4 5 5 6 8 6 5 16 16 16 16 19 18 21 21 21 19 19 19 20 20 21 22 21 20 19 20 11 10 11 11
3 3 3 1 1 2 2 2 1 3 2 3 4 5 4 5 8 9 7 9 19 18 18 20 19 20 19 20 19 19 20 20 19 20 20 21 21 19 19 18 18 14 13
4 4 3 3 2 1 4 3 4 3 4 3 5 5 5 8 8 10 9 8 10 16 17 19 19 18 17 17 17 17 17 17 18 18 18 19 19 19 19 19 17 17 17
2 3 4 3 2 2 2 3 3 3 4 4 3 4 4 7 8 9 9 7 7 8 14 19 19 19 19 18 18 17 16 17 18 18 18 16 16 17 17 18 17 18 18
3 4 4 3 4 2 2 2 3 2 2 3 4 4 5 5 6 6 9 9 11 9 8 18 21 19 18 17 17 17 17 17 17 18 18 17 17 18 18 18 18 18 18
4 4 4 4 4 4 3 2 3 4 2 3 5 7 6 6 6 5 7 9 9 9 7 8 7 10 17 17 17 17 16 16 16 17 18 19 19 18 19 19 19 19 19
4 4 3 4 3 4 4 4 3 4 2 1 4 7 8 9 9 7 6 6 9 8 8 8 6 5 6 16 16 17 16 16 17 17 17 18 17 18 18 19 20 20 20
2 2 3 4 5 4 4 4 3 3 2 3 4 3 4 3 7 7 6 7 8 6 7 8 8 6 4 4 10 17 17 16 16 17 17 18 17 18 18 19 20 21 22
2 2 2 3 2 2 3 3 4 4 3 0 4 4 3 4 5 4 7 6 7 5 4 6 6 6 5 4 7 11 16 16 17 18 18 18 19 19 19 18 19 21 22
2 2 2 3 3 1 2 2 2 3 4 4 1 2 3 5 5 4 4 5 5 6 4 5 4 5 5 4 11 16 15 18 20 20 21 20 19 19 19 19 21 21 21
1 2 3 3 3 2 1 0 2 3 2 4 2 2 3 4 4 5 4 3 3 3 3 3 4 4 5 4 4 11 17 19 20 18 19 18 17 19 21 21 21 22 22
1 1 3 3 4 5 3 1 1 1 0 2 2 2 2 3 3 4 4 4 4 2 2 3 4 4 4 3 9 15 16 18 18 16 15 16 18 20 21 21 21 22 22
3 4 3 4 2 3 5 4 3 3 3 3 3 2 2 2 2 3 4 3 3 3 2 3 2 3 3 3 5 12 13 15 14 16 16 16 19 21 22 21 21 22 23
4 6 5 5 5 5 3 4 3 3 4 4 5 4 3 3 2 2 4 6 3 2 3 5 0 2 2 1 7 11 6 12 14 14 16 17 19 18 19 19 21 22 22
4 6 7 7 6 6 5 5 3 5 5 4 5 4 4 3 4 3 3 3 5 4 2 3 3 0 2 3 7 4 4 10 12 13 14 17 19 18 18 20 21 22 22
7 7 7 6 7 7 6 6 4 4 6 4 4 5 4 3 4 4 4 4 3 3 4 2 2 2 1 4 8 5 5 9 10 10 12 16 18 18 19 20 21 23 22
8 8 8 7 7 7 7 6 5 6 6 6 5 6 5 5 4 4 4 3 4 2 5 3 3 2 3 4 5 4 5 4 2 8 11 15 17 17 18 20 21 22 22
10 11 10 8 8 7 6 6 6 5 6 6 5 6 5 6 5 4 2 4 3 4 4 7 2 3 4 3 4 5 4 4 4 7 12 15 16 17 17 19 20 21 21
7 6 8 9 8 6 7 6 7 7 7 7 6 5 4 7 5 3 2 3 3 5 3 5 3 2 3 2 3 6 4 5 4 8 10 14 17 18 17 19 21 21 20
7 6 7 7 8 8 8 9 9 9 9 7 6 5 3 5 5 4 3 4 4 5 4 6 4 3 2 2 2 2 4 4 3 5 8 10 13 17 18 19 21 21 21
6 8 9 8 8 8 6 8 8 8 9 9 7 5 4 5 5 2 3 3 5 4 5 4 4 2 2 2 3 1 2 3 3 3 3 4 3 4 8 11 16 20 21
6 9 9 9 8 5 14 14 11 7 7 8 8 6 7 10 10 12 11 10 6 4 4 3 2 2 3 2 2 1 2 2 2 3 1 4 4 6 6 7 19 19 20
5 6 7 8 7 8 17 16 14 6 7 7 7 6 7 6 7 9 15 18 17 14 8 4 5 2 3 3 3 2 3 2 1 2 1 4 4 6 6 7 18 18 18
7 6 7 7 7 6 16 17 16 9 8 7 6 4 7 5 5 7 7 10 9 9 9 7 7 4 3 4 3 3 4 6 3 3 3 2 3 2 4 5 18 18 18
6 4 5 7 6 5 14 19 14 9 8 8 6 5 6 5 9 12 10 10 8 5 11 15 15 15 12 10 4 5 3 3 2 2 4 3 2 2 3 4 6 17 17
5 6 6 5 9 7 17 18 14 7 7 6 6 4 10 6 10 12 7 8 8 4 7 4 4 7 11 12 14 4 2 3 3 3 3 3 2 2 3 2 3 6 6
Wind_Direction
150 143 120 87 57 7 65 93 92 92 74 69 53 82 73 79 84 79 67 70 78 87 91 88 84 80 76 72 64 56 52 51 49 46 43 38 32 29 28 337 277 253 243
160 159 132 106 98 84 56 41 55 98 81 97 82 81 98 87 91 85 82 65 74 73 76 77 72 75 71 64 58 56 51 47 46 43 41 36 29 21 21 16 13 348 276
173 147 138 138 150 122 109 94 62 57 72 42 75 76 95 102 100 97 97 90 81 74 77 77 74 65 63 63 58 50 45 38 35 31 28 29 23 19 16 16 10 8 356
119 147 143 137 124 88 102 97 92 74 83 88 71 49 76 97 106 111 104 104 93 86 76 84 79 76 69 61 54 48 42 36 33 29 25 21 14 8 7 7 2 359 356
116 126 128 133 126 110 86 89 47 74 86 84 92 66 92 103 104 104 103 103 104 98 95 85 78 72 67 61 52 45 39 34 29 24 20 16 12 9 5 359 353 349 345
118 129 133 139 142 136 121 93 106 44 66 88 69 60 47 51 57 61 99 104 92 85 80 78 72 66 64 61 50 42 36 31 28 24 20 13 9 5 2 358 353 346 334
140 141 143 142 151 153 164 146 124 122 82 111 98 77 62 53 55 53 61 76 77 75 74 69 65 56 44 54 49 42 35 33 31 28 24 17 14 9 6 3 354 346 342
73 143 160 164 159 140 146 157 152 134 129 166 135 109 133 98 63 50 58 70 63 65 68 73 78 65 49 42 51 47 36 30 31 30 25 20 15 11 8 6 1 1 355
52 131 153 163 158 140 180 181 173 166 153 175 219 147 149 171 136 72 58 66 72 65 45 60 64 61 49 47 57 43 38 32 30 26 23 18 14 12 10 5 2 360 358
108 115 137 154 158 156 177 194 205 177 140 176 87 44 55 137 156 138 71 68 77 82 59 73 64 54 45 41 46 48 43 41 34 30 26 19 15 18 13 4 358 353 353
127 110 131 134 134 106 86 191 240 232 192 149 135 137 63 46 78 133 150 139 70 32 53 64 69 57 34 34 45 43 39 40 32 26 22 18 23 25 14 6 359 355 346
193 148 126 126 137 130 133 67 11 44 267 83 117 133 154 160 166 135 115 130 131 108 70 69 67 62 44 26 57 51 45 44 31 25 25 28 24 21 17 9 1 0 357
188 189 163 159 156 145 133 123 96 70 45 82 87 85 65 65 108 111 109 135 141 152 130 63 73 67 71 40 66 60 51 48 36 31 30 29 28 23 17 10 4 4 0
175 165 170 164 150 140 125 124 110 99 90 84 89 90 91 56 47 95 138 142 114 138 150 135 24 99 94 118 96 76 52 61 49 39 36 36 38 31 22 14 11 9 3
169 176 170 161 155 144 136 128 121 120 110 101 92 84 86 74 64 57 69 95 131 150 155 177 132 337 103 107 103 90 60 78 62 48 41 40 38 33 24 22 16 12 9
172 172 175 163 152 147 143 139 135 136 125 122 119 108 88 77 75 69 71 70 72 124 129 113 86 119 12 100 110 89 72 57 82 65 42 43 41 33 27 27 22 16 13
181 177 173 163 159 159 154 145 151 140 128 122 124 120 114 96 88 81 78 87 83 79 100 80 94 44 54 97 89 84 83 51 360 79 58 42 43 35 32 31 25 23 16
182 175 172 169 166 164 149 143 148 129 118 107 105 115 130 121 82 73 64 84 91 71 112 127 117 71 64 30 105 85 55 60 304 77 64 49 41 43 34 35 33 28 23
182 174 164 158 153 142 128 109 105 95 79 72 56 64 85 99 102 128 113 115 106 98 102 135 129 98 72 25 102 73 53 39 3 42 67 51 41 40 35 35 33 28 34
149 141 145 137 135 131 126 120 121 115 107 86 82 67 75 94 118 121 108 110 113 109 118 119 94 110 109 49 71 110 76 41 356 19 43 40 45 40 34 37 35 28 29
147 139 130 122 123 120 123 124 122 119 119 110 93 95 98 101 124 146 130 140 128 116 130 127 112 119 132 143 103 44 116 99 22 357 39 29 5 28 29 23 38 33 22
126 125 132 129 116 120 137 135 125 116 108 112 112 105 85 83 92 97 99 94 88 131 142 121 116 139 137 114 114 133 117 179 175 25 341 46 16 31 18 31 38 36 28
100 105 110 113 115 127 137 133 120 110 111 107 122 121 115 104 89 89 87 86 78 78 85 118 128 141 139 139 138 129 101 107 106 337 344 65 354 40 20 23 37 38 32
109 112 99 103 116 126 141 133 120 111 110 103 119 151 122 123 125 115 105 90 83 77 76 82 99 123 121 153 142 96 109 109 99 38 351 110 337 29 1 16 39 34 34
115 114 121 119 123 142 156 138 120 117 116 119 121 125 122 121 136 131 117 110 96 61 102 99 83 65 88 124 138 132 167 137 49 345 341 100 328 359 8 344 26 38 32
111 115 107 111 139 140 147 146 129 123 121 118 107 143 145 157 132 133 118 118 113 90 88 60 18 42 54 63 64 60 161 116 125 25 287 92 20 73 22 323 7 33 19